Location: Austin
(30.3000°N, 97.7500°W)
Time: 07:32:30
(UTC-06:00)

Fermi - Pass Details

Date: 20 November 2025
Orbit: 492 x 503 km, 25.6° (Epoch: 07 December)

Event Time Altitude Azimuth Distance (km) Brightness Sun altitude
Rises 19:31:05 0° 258° (WSW) 2,563 8.6 -25.5°
Reaches altitude 10° 19:34:11 10° 232° (SW) 1,683 7.1 -26.2°
Maximum altitude 19:36:13 14° 201° (SSW) 1,462 6.3 -26.6°
Enters shadow 19:36:42 14° 192° (SSW) 1,475 6.2 -26.7°
